Location: Karlovy Vary
(50.2170°N, 12.9000°E)
Time: 03:49:29
(UTC+01:00)

ISS - Visible Passes

Search period start: 22 January 2019 00:00
Search period end: 01 February 2019 00:00
Orbit: 404 x 410 km, 51.6° (Epoch: 22 January)

Date Brightness Start Highest point End Pass type
(mag) Time Alt. Az. Time Alt. Az. Time Alt. Az.
22 Jan -0.7 19:29:55 10° SSW 19:30:01 11° SSW 19:30:01 11° SSW visible
23 Jan -1.9 18:39:13 10° S 18:41:05 19° SSE 18:41:05 19° SSE visible
24 Jan -1.5 17:49:06 10° SSE 17:50:34 12° SE 17:52:03 10° ESE visible
24 Jan -1.7 19:23:19 10° SW 19:24:48 24° SW 19:24:48 24° SW visible
25 Jan -3.0 18:32:13 10° SW 18:35:17 36° SSE 18:35:43 34° SE visible
25 Jan -0.2 20:08:22 10° W 20:08:26 10° W 20:08:26 10° W visible
26 Jan -2.2 17:41:21 10° SSW 17:44:03 24° SE 17:46:33 11° E visible
26 Jan -2.6 19:17:00 10° WSW 19:19:16 41° WSW 19:19:16 41° WSW visible
27 Jan -3.7 18:25:40 10° WSW 18:28:57 63° SSE 18:30:03 36° E visible
27 Jan -0.5 20:02:14 10° W 20:02:46 14° W 20:02:46 14° W visible
28 Jan -3.1 17:34:28 10° SW 17:37:37 43° SSE 17:40:47 10° E visible
28 Jan -3.2 19:10:47 10° W 19:13:30 55° WNW 19:13:30 55° WNW visible
29 Jan -3.9 18:19:21 10° WSW 18:22:39 86° NNW 18:24:13 29° ENE visible
29 Jan -0.8 19:56:01 10° WNW 19:56:55 17° WNW 19:56:55 17° WNW visible
30 Jan -3.7 17:27:57 10° WSW 17:31:14 73° SSE 17:34:33 10° ENE visible
30 Jan -3.5 19:04:34 10° W 19:07:37 62° NNW 19:07:37 62° NNW visible
31 Jan -3.7 18:13:04 10° W 18:16:23 69° N 18:18:17 23° ENE visible
31 Jan -1.2 19:49:44 10° WNW 19:50:59 21° WNW 19:50:59 21° WNW visible
